Location: *
(32.8140°S, 174.6161°E)
Time: 19:02:11
(UTC+00:00)

ADEOS II - Pass Details

Date: 10 December 2019
Orbit: 799 x 802 km, 98.5° (Epoch: 18 January)

Event Time Altitude Azimuth Distance (km) Brightness Sun altitude
Exits shadow 14:51:37 35° 265° (W) 1,276 2.8 -22.8°
Drops below altitude 10° 14:55:56 10° 212° (SSW) 2,399 4.8 -22.2°
Sets 14:58:29 0° 203° (SSW) 3,337 5.7 -21.9°
